DW6494 Weather Reports


Display with metric or nautical units.
time (UTC)temp
F
wind
direction
speed
MPH
gust
MPH
rain 1hr
in
rain 24hr
in
rain mn
in
humidity
%
barometer
mb
20260831014529 71 335 5.0 5.0 0.00 0.00 0.00 57 1021.0
20260831014029 71 154 2.0 5.0 0.00 0.00 0.00 58 1021.0
20260831013530 71 122 4.0 7.0 0.00 0.00 0.00 56 1021.0
20260831013029 71 147 9.0 13.0 0.00 0.00 0.00 54 1021.0
20260831012529 72 142 5.0 7.0 0.00 0.00 0.00 53 1021.0
20260831012030 73 86 3.0 6.0 0.00 0.00 0.00 53 1021.0
20260831011529 75 145 6.0 11.0 0.00 0.00 0.00 56 1021.0
20260831011029 77 131 2.0 4.0 0.00 0.00 0.00 47 1021.0
20260831010529 77 24 3.0 5.0 0.00 0.00 0.00 47 1021.0
20260831010029 77 166 0.0 0.0 0.00 0.00 0.00 47 1021.0
20260831005529 77 278 2.0 3.0 0.00 0.00 0.00 45 1021.0
20260831005029 77 19 4.0 6.0 0.00 0.00 0.00 45 1021.0
20260831004529 77 360 0.0 0.0 0.00 0.00 0.00 44 1021.0
20260831004029 78 120 4.0 9.0 0.00 0.00 0.00 42 1021.0
20260831003529 78 357 5.0 11.0 0.00 0.00 0.00 41 1021.0
20260831003029 78 1 4.0 8.0 0.00 0.00 0.00 42 1021.0
20260831002530 78 349 4.0 8.0 0.00 0.00 0.00 42 1021.0
20260831002029 78 342 5.0 8.0 0.00 0.00 0.00 43 1021.0
20260831001529 78 357 8.0 12.0 0.00 0.00 0.00 43 1021.0
20260831001029 78 298 5.0 11.0 0.00 0.00 0.00 44 1021.0
20260831000530 78 275 6.0 10.0 0.00 0.00 0.00 42 1021.0
20260831000030 78 5 4.0 7.0 0.00 0.00 0.00 45 1021.0
20260830235530 78 334 2.0 7.0 0.00 0.00 0.00 44 1020.0
20260830235030 77 347 9.0 13.0 0.00 0.00 0.00 45 1021.0
20260830234529 77 330 5.0 9.0 0.00 0.00 0.00 46 1021.0
20260830234029 76 348 4.0 7.0 0.00 0.00 0.00 48 1021.0
20260830233529 75 82 4.0 5.0 0.00 0.00 0.00 49 1021.0
20260830233029 75 360 0.0 0.0 0.00 0.00 0.00 53 1021.0
20260830232529 75 347 4.0 4.0 0.00 0.00 0.00 54 1021.0
20260830232030 75 161 3.0 4.0 0.00 0.00 0.00 55 1021.0
20260830231529 75 146 5.0 5.0 0.00 0.00 0.00 56 1021.0
20260830231030 75 128 3.0 4.0 0.00 0.00 0.00 55 1021.0
20260830230529 75 360 0.0 0.0 0.00 0.00 0.00 51 1021.0
20260830230029 75 360 0.0 0.0 0.00 0.00 0.00 54 1021.0
20260830225529 75 360 0.0 0.0 0.00 0.00 0.00 57 1021.0
20260830225029 75 360 0.0 0.0 0.00 0.00 0.00 56 1021.0
20260830224530 75 360 0.0 0.0 0.00 0.00 0.00 56 1021.0
20260830224029 75 118 1.0 2.0 0.00 0.00 0.00 58 1021.0
20260830223530 75 360 0.0 0.0 0.00 0.00 0.00 58 1021.0
20260830223029 76 309 0.0 0.0 0.00 0.00 0.00 54 1021.0
20260830222530 76 360 0.0 0.0 0.00 0.00 0.00 51 1021.0
20260830222029 76 360 0.0 0.0 0.00 0.00 0.00 47 1021.0
20260830221529 75 360 0.0 0.0 0.00 0.00 0.00 48 1021.0
20260830221029 75 360 0.0 0.0 0.00 0.00 0.00 46 1021.0
20260830220529 75 35 0.0 2.0 0.00 0.00 0.00 45 1021.0
20260830220028 75 360 0.0 0.0 0.00 0.00 0.00 48 1021.0
20260830215529 75 9 2.0 4.0 0.00 0.00 0.00 51 1021.0
20260830215029 75 360 0.0 0.0 0.00 0.00 0.00 53 1021.0
20260830214529 75 147 4.0 5.0 0.00 0.00 0.00 51 1021.0
20260830214029 76 119 3.0 4.0 0.00 0.00 0.00 51 1021.0
20260830213529 76 163 6.0 7.0 0.00 0.00 0.00 50 1021.0
20260830213029 76 155 6.0 8.0 0.00 0.00 0.00 52 1021.0
20260830212528 76 131 5.0 9.0 0.00 0.00 0.00 51 1021.0
20260830212029 77 212 6.0 13.0 0.00 0.00 0.00 51 1021.0
20260830211529 77 158 8.0 11.0 0.00 0.00 0.00 52 1021.0
20260830211029 77 148 4.0 8.0 0.00 0.00 0.00 54 1021.0
20260830210529 77 151 6.0 8.0 0.00 0.00 0.00 51 1021.0
20260830210029 77 110 5.0 8.0 0.00 0.00 0.00 55 1021.0
20260830205530 76 170 1.0 4.0 0.00 0.00 0.00 52 1021.0
20260830205029 76 151 11.0 15.0 0.00 0.00 0.00 51 1022.0
20260830204529 76 153 12.0 13.0 0.00 0.00 0.00 53 1022.0
20260830204029 76 162 5.0 9.0 0.00 0.00 0.00 55 1022.0
20260830203529 75 142 4.0 5.0 0.00 0.00 0.00 56 1022.0
20260830203029 75 152 13.0 17.0 0.00 0.00 0.00 55 1022.0
20260830202529 75 140 7.0 10.0 0.00 0.00 0.00 56 1022.0
20260830202029 75 158 10.0 16.0 0.00 0.00 0.00 56 1022.0
20260830201528 75 153 9.0 14.0 0.00 0.00 0.00 55 1022.0
20260830201029 75 144 10.0 13.0 0.00 0.00 0.00 57 1022.0
20260830200529 74 165 7.0 11.0 0.00 0.00 0.00 58 1022.0
20260830200029 74 173 6.0 11.0 0.00 0.00 0.00 59 1022.0
20260830195529 75 148 9.0 15.0 0.00 0.00 0.00 57 1022.0
20260830195029 75 152 2.0 6.0 0.00 0.00 0.00 57 1022.0
20260830194530 75 147 9.0 11.0 0.00 0.00 0.00 57 1022.0
20260830194029 75 137 6.0 10.0 0.00 0.00 0.00 57 1022.0
20260830193530 75 142 10.0 17.0 0.00 0.00 0.00 57 1022.0
20260830193029 75 153 6.0 10.0 0.00 0.00 0.00 56 1022.0
20260830192529 75 117 6.0 11.0 0.00 0.00 0.00 57 1022.0
20260830192030 74 192 3.0 6.0 0.00 0.00 0.00 58 1022.0
20260830191529 73 142 8.0 10.0 0.00 0.00 0.00 59 1022.0
20260830191029 73 149 8.0 11.0 0.00 0.00 0.00 58 1022.0
20260830190529 74 148 11.0 15.0 0.00 0.00 0.00 57 1022.0
20260830190030 73 128 9.0 12.0 0.00 0.00 0.00 58 1022.0
20260830185529 74 140 12.0 17.0 0.00 0.00 0.00 56 1022.0
20260830185029 74 148 14.0 19.0 0.00 0.00 0.00 51 1022.0
20260830184531 73 161 6.0 11.0 0.00 0.00 0.00 52 1022.0
20260830184030 73 149 8.0 12.0 0.00 0.00 0.00 53 1022.0
20260830183528 73 149 9.0 11.0 0.00 0.00 0.00 53 1022.0
20260830183029 74 160 6.0 7.0 0.00 0.00 0.00 52 1023.0
20260830182529 73 68 2.0 4.0 0.00 0.00 0.00 54 1022.0
20260830182029 72 71 1.0 4.0 0.00 0.00 0.00 54 1023.0
20260830181529 72 65 3.0 8.0 0.00 0.00 0.00 56 1023.0
20260830181028 72 129 4.0 10.0 0.00 0.00 0.00 55 1023.0
20260830180531 71 127 0.0 1.0 0.00 0.00 0.00 57 1022.0
20260830180029 71 27 4.0 9.0 0.00 0.00 0.00 57 1022.0
20260830175529 71 157 9.0 15.0 0.00 0.00 0.00 57 1022.0
20260830175029 71 164 5.0 8.0 0.00 0.00 0.00 58 1023.0
20260830174529 71 163 3.0 6.0 0.00 0.00 0.00 56 1023.0
20260830174029 70 337 2.0 4.0 0.00 0.00 0.00 58 1023.0
20260830173530 70 147 11.0 13.0 0.00 0.00 0.00 58 1022.0
20260830173030 70 148 13.0 17.0 0.00 0.00 0.00 58 1022.0
20260830172530 69 145 5.0 9.0 0.00 0.00 0.00 61 1022.0
20260830172029 69 152 9.0 14.0 0.00 0.00 0.00 62 1023.0
20260830171529 68 155 6.0 10.0 0.00 0.00 0.00 63 1023.0
20260830171030 68 152 10.0 13.0 0.00 0.00 0.00 61 1023.0
20260830170529 68 143 4.0 9.0 0.00 0.00 0.00 63 1023.0
20260830170029 68 148 9.0 13.0 0.00 0.00 0.00 62 1023.0
20260830165528 68 161 1.0 4.0 0.00 0.00 0.00 64 1023.0
20260830165029 68 194 2.0 5.0 0.00 0.00 0.00 64 1023.0
20260830164529 67 158 5.0 9.0 0.00 0.00 0.00 67 1023.0
20260830164029 66 337 4.0 6.0 0.00 0.00 0.00 68 1023.0
20260830163530 66 135 5.0 6.0 0.00 0.00 0.00 68 1022.0
20260830163030 66 161 7.0 9.0 0.00 0.00 0.00 69 1022.0
20260830162529 67 354 0.0 1.0 0.00 0.00 0.00 69 1022.0
20260830162029 67 339 6.0 6.0 0.00 0.00 0.00 67 1022.0
20260830161529 67 350 3.0 4.0 0.00 0.00 0.00 66 1022.0
20260830161029 66 141 3.0 4.0 0.00 0.00 0.00 68 1022.0
20260830160529 65 199 1.0 3.0 0.00 0.00 0.00 68 1022.0
20260830160029 65 334 5.0 7.0 0.00 0.00 0.00 70 1022.0
20260830155529 65 215 4.0 5.0 0.00 0.00 0.00 72 1022.0
20260830155029 65 203 4.0 4.0 0.00 0.00 0.00 72 1022.0
20260830154529 65 18 5.0 6.0 0.00 0.00 0.00 73 1022.0
20260830154030 65 316 4.0 6.0 0.00 0.00 0.00 76 1022.0
20260830153530 65 202 4.0 7.0 0.00 0.00 0.00 76 1022.0
20260830153030 65 204 6.0 6.0 0.00 0.00 0.00 74 1022.0
20260830152530 65 252 4.0 5.0 0.00 0.00 0.00 73 1022.0
20260830152029 65 311 4.0 6.0 0.00 0.00 0.00 72 1022.0
20260830151530 66 280 4.0 5.0 0.00 0.00 0.00 74 1022.0
20260830151030 66 253 3.0 4.0 0.00 0.00 0.00 72 1022.0
20260830150529 67 240 1.0 2.0 0.00 0.00 0.00 72 1022.0
20260830150029 66 208 3.0 4.0 0.00 0.00 0.00 73 1022.0
20260830145530 65 231 4.0 4.0 0.00 0.00 0.00 75 1022.0
20260830145029 65 213 5.0 7.0 0.00 0.00 0.00 75 1022.0
20260830144529 64 220 6.0 9.0 0.00 0.00 0.00 76 1022.0
20260830144029 63 228 5.0 6.0 0.00 0.00 0.00 77 1022.0
20260830143530 62 222 6.0 6.0 0.00 0.00 0.00 79 1022.0
20260830143029 62 223 5.0 6.0 0.00 0.00 0.00 84 1022.0
20260830142529 61 45 4.0 7.0 0.00 0.00 0.00 84 1022.0
20260830142029 61 232 5.0 6.0 0.00 0.00 0.00 84 1022.0
20260830141528 61 177 3.0 4.0 0.00 0.00 0.00 85 1022.0
20260830141029 60 185 5.0 6.0 0.00 0.00 0.00 87 1022.0
20260830140529 61 137 6.0 7.0 0.00 0.00 0.00 88 1022.0
20260830140029 61 192 4.0 5.0 0.00 0.00 0.00 88 1022.0
20260830135529 61 158 2.0 3.0 0.00 0.00 0.00 88 1022.0
20260830135029 61 235 0.0 0.0 0.00 0.00 0.00 86 1022.0
20260830134529 62 360 0.0 0.0 0.00 0.00 0.00 84 1022.0
20260830134029 62 223 1.0 3.0 0.00 0.00 0.00 82 1022.0
20260830133529 62 225 3.0 4.0 0.00 0.00 0.00 78 1022.0
20260830133029 62 226 2.0 6.0 0.00 0.00 0.00 75 1022.0
20260830132532 62 238 2.0 2.0 0.00 0.00 0.00 76 1021.0
20260830132029 62 232 3.0 4.0 0.00 0.00 0.00 76 1021.0
20260830131529 61 215 7.0 9.0 0.00 0.00 0.00 77 1021.0
20260830131028 61 222 4.0 5.0 0.00 0.00 0.00 81 1021.0
20260830130533 61 212 5.0 7.0 0.00 0.00 0.00 82 1021.0
20260830130029 61 189 9.0 9.0 0.00 0.00 0.00 83 1021.0
20260830125529 61 360 0.0 0.0 0.00 0.00 0.00 83 1021.0
20260830125029 61 303 1.0 3.0 0.00 0.00 0.00 82 1021.0
20260830124530 61 360 0.0 0.0 0.00 0.00 0.00 81 1021.0
20260830124029 61 240 0.0 1.0 0.00 0.00 0.00 81 1021.0
20260830123529 62 360 0.0 0.0 0.00 0.00 0.00 81 1021.0
20260830123029 62 242 1.0 2.0 0.00 0.00 0.00 79 1021.0
20260830122529 62 227 2.0 4.0 0.00 0.00 0.00 77 1021.0
20260830122029 62 222 8.0 9.0 0.00 0.00 0.00 77 1021.0
20260830121529 63 215 5.0 7.0 0.00 0.00 0.00 78 1021.0
20260830121029 63 208 9.0 10.0 0.00 0.00 0.00 76 1021.0
20260830120529 63 217 10.0 13.0 0.00 0.00 0.00 74 1021.0
20260830120029 63 214 12.0 14.0 0.00 0.00 0.00 73 1021.0
20260830115529 63 214 9.0 11.0 0.00 0.00 0.00 72 1021.0
20260830115029 63 238 4.0 8.0 0.00 0.00 0.00 71 1021.0
20260830114529 63 250 3.0 4.0 0.00 0.00 0.00 71 1021.0
20260830114029 63 287 5.0 8.0 0.00 0.00 0.00 73 1021.0
20260830113529 62 301 6.0 8.0 0.00 0.00 0.00 76 1021.0
20260830113029 61 318 6.0 8.0 0.00 0.00 0.00 80 1021.0
20260830112529 61 2 0.0 0.0 0.00 0.00 0.00 84 1021.0
20260830112029 61 360 0.0 0.0 0.00 0.00 0.00 84 1021.0
20260830111529 61 8 2.0 3.0 0.00 0.00 0.00 84 1021.0
20260830111029 61 15 3.0 3.0 0.00 0.00 0.00 84 1021.0
20260830110530 61 360 0.0 0.0 0.00 0.00 0.00 85 1021.0
20260830110030 61 360 0.0 0.0 0.00 0.00 0.00 86 1021.0
20260830105529 61 360 0.0 0.0 0.00 0.00 0.00 86 1021.0
20260830105030 61 17 3.0 3.0 0.00 0.00 0.00 86 1021.0
20260830104529 61 360 0.0 0.0 0.00 0.00 0.00 83 1021.0
20260830104030 61 360 0.0 0.0 0.00 0.00 0.00 85 1021.0
20260830103529 61 356 4.0 5.0 0.00 0.00 0.00 86 1021.0
20260830103030 61 360 0.0 0.0 0.00 0.00 0.00 85 1021.0
20260830102530 61 360 0.0 0.0 0.00 0.00 0.00 86 1021.0
20260830102029 61 18 0.0 2.0 0.00 0.00 0.00 86 1021.0
20260830101529 60 21 7.0 11.0 0.00 0.00 0.00 86 1021.0
20260830101029 60 33 4.0 5.0 0.00 0.00 0.00 85 1021.0
20260830100529 61 25 2.0 2.0 0.00 0.00 0.00 84 1021.0
20260830100031 61 16 3.0 4.0 0.00 0.00 0.00 82 1021.0
20260830095530 62 20 2.0 3.0 0.00 0.00 0.00 81 1021.0
20260830095029 62 190 4.0 5.0 0.00 0.00 0.00 77 1021.0
20260830094529 62 268 2.0 4.0 0.00 0.00 0.00 76 1021.0
20260830094029 62 189 4.0 5.0 0.00 0.00 0.00 74 1021.0
20260830093529 62 35 3.0 4.0 0.00 0.00 0.00 77 1021.0
20260830093029 61 37 2.0 5.0 0.00 0.00 0.00 80 1021.0
20260830092529 61 15 5.0 6.0 0.00 0.00 0.00 83 1021.0
20260830092029 61 13 3.0 4.0 0.00 0.00 0.00 85 1021.0
20260830091530 61 33 0.0 0.0 0.00 0.00 0.00 84 1021.0
20260830091029 61 58 4.0 4.0 0.00 0.00 0.00 83 1021.0
20260830090529 61 107 4.0 4.0 0.00 0.00 0.00 84 1021.0
20260830090029 61 19 3.0 3.0 0.00 0.00 0.00 87 1021.0
20260830085529 61 68 2.0 4.0 0.00 0.00 0.00 86 1021.0
20260830085029 62 159 2.0 3.0 0.00 0.00 0.00 87 1021.0
20260830084529 62 190 6.0 6.0 0.00 0.00 0.00 86 1022.0
20260830084029 62 204 4.0 9.0 0.00 0.00 0.00 86 1021.0
20260830083529 62 224 6.0 7.0 0.00 0.00 0.00 89 1021.0
20260830083029 62 228 2.0 2.0 0.00 0.00 0.00 88 1021.0
20260830082529 62 224 5.0 6.0 0.00 0.00 0.00 88 1021.0
20260830082029 62 223 4.0 5.0 0.00 0.00 0.00 87 1021.0
20260830081529 62 318 4.0 6.0 0.00 0.00 0.00 86 1021.0
20260830081029 62 303 2.0 4.0 0.00 0.00 0.00 85 1022.0
20260830080529 62 283 4.0 6.0 0.00 0.00 0.00 86 1021.0
20260830080029 62 241 5.0 7.0 0.00 0.00 0.00 87 1021.0
20260830075529 62 348 5.0 6.0 0.00 0.00 0.00 88 1021.0
20260830075029 62 1 5.0 5.0 0.00 0.00 0.00 88 1021.0
20260830074529 62 360 0.0 0.0 0.00 0.00 0.00 86 1022.0
20260830074029 62 324 4.0 4.0 0.00 0.00 0.00 86 1021.0
20260830073528 62 339 4.0 6.0 0.00 0.00 0.00 86 1021.0
20260830073030 62 208 6.0 8.0 0.00 0.00 0.00 86 1021.0
20260830072528 62 256 4.0 7.0 0.00 0.00 0.00 88 1022.0
20260830072036 62 218 4.0 4.0 0.00 0.00 0.00 89 1021.0
20260830071529 62 230 3.0 4.0 0.00 0.00 0.00 88 1021.0
20260830071029 62 220 7.0 9.0 0.00 0.00 0.00 87 1021.0
20260830070530 63 212 6.0 15.0 0.00 0.00 0.00 87 1021.0
20260830070029 63 230 6.0 8.0 0.00 0.00 0.00 84 1022.0
20260830065529 63 219 8.0 10.0 0.00 0.00 0.00 81 1022.0
20260830065029 63 198 9.0 15.0 0.00 0.00 0.00 80 1022.0
20260830064529 63 189 16.0 21.0 0.00 0.00 0.00 80 1021.0
20260830064028 63 202 6.0 9.0 0.00 0.00 0.00 83 1021.0
20260830063529 63 196 6.0 7.0 0.00 0.00 0.00 82 1021.0
20260830063032 63 274 4.0 5.0 0.00 0.00 0.00 80 1021.0
20260830062530 62 224 5.0 7.0 0.00 0.00 0.00 81 1021.0
20260830062029 62 191 4.0 5.0 0.00 0.00 0.00 83 1021.0
20260830061529 62 212 4.0 5.0 0.00 0.00 0.00 82 1021.0
20260830061029 62 164 9.0 11.0 0.00 0.00 0.00 83 1021.0
20260830060529 62 360 0.0 0.0 0.00 0.00 0.00 82 1021.0
20260830060029 62 192 3.0 6.0 0.00 0.00 0.00 79 1021.0
20260830055529 62 211 4.0 5.0 0.00 0.00 0.00 79 1021.0
20260830055029 62 32 3.0 6.0 0.00 0.00 0.00 82 1021.0
20260830054529 62 1 7.0 9.0 0.00 0.00 0.00 82 1021.0
20260830054029 62 40 1.0 4.0 0.00 0.00 0.00 83 1021.0
20260830053529 63 73 4.0 7.0 0.00 0.00 0.00 82 1021.0
20260830053029 63 131 6.0 11.0 0.00 0.00 0.00 80 1021.0
20260830052529 63 135 8.0 8.0 0.00 0.00 0.00 82 1022.0
20260830052029 63 83 4.0 5.0 0.00 0.00 0.00 83 1022.0
20260830051529 63 34 4.0 5.0 0.00 0.00 0.00 84 1022.0
20260830051030 63 48 2.0 4.0 0.00 0.00 0.00 83 1022.0
20260830050529 64 39 6.0 7.0 0.00 0.00 0.00 84 1023.0
20260830050029 64 28 1.0 3.0 0.00 0.00 0.00 79 1023.0
20260830045529 65 343 7.0 8.0 0.00 0.00 0.00 78 1023.0
20260830045029 65 282 4.0 6.0 0.00 0.00 0.00 77 1023.0
20260830044529 65 228 8.0 12.0 0.00 0.00 0.00 68 1023.0
20260830044029 65 243 3.0 3.0 0.00 0.00 0.00 84 1023.0
20260830043529 65 269 5.0 6.0 0.00 0.00 0.00 83 1023.0
20260830043029 65 196 5.0 7.0 0.00 0.00 0.00 82 1023.0
20260830042529 65 228 8.0 10.0 0.00 0.00 0.00 81 1023.0
20260830042029 64 231 7.0 9.0 0.00 0.00 0.00 82 1022.0
20260830041529 64 228 7.0 9.0 0.00 0.00 0.00 83 1022.0
20260830041029 64 227 8.0 13.0 0.00 0.00 0.00 84 1022.0
20260830040529 64 216 7.0 10.0 0.00 0.00 0.00 85 1022.0
20260830040031 64 210 8.0 8.0 0.00 0.00 0.00 83 1022.0
20260830035529 65 229 5.0 6.0 0.00 0.00 0.00 83 1022.0
20260830035029 65 247 4.0 5.0 0.00 0.00 0.00 83 1022.0
20260830034529 65 235 7.0 8.0 0.00 0.00 0.00 81 1022.0
20260830034029 65 293 4.0 5.0 0.00 0.00 0.00 81 1022.0
20260830033529 65 321 6.0 6.0 0.00 0.00 0.00 79 1022.0
20260830033029 65 1 4.0 5.0 0.00 0.00 0.00 79 1022.0
20260830032529 65 344 5.0 5.0 0.00 0.00 0.00 78 1021.0
20260830032029 64 322 7.0 9.0 0.00 0.00 0.00 78 1021.0
20260830031529 64 350 6.0 7.0 0.00 0.00 0.00 81 1021.0
20260830031029 63 5 4.0 4.0 0.00 0.00 0.00 82 1020.0
20260830030529 63 351 6.0 8.0 0.00 0.00 0.00 81 1020.0
20260830030029 62 338 8.0 9.0 0.00 0.00 0.00 82 1020.0
20260830025530 62 1 5.0 6.0 0.00 0.00 0.00 86 1020.0
20260830025029 62 7 3.0 3.0 0.00 0.00 0.00 86 1020.0
20260830024529 62 15 4.0 6.0 0.00 0.00 0.00 87 1020.0
20260830024029 62 360 0.0 0.0 0.00 0.00 0.00 86 1020.0
20260830023529 62 88 0.0 2.0 0.00 0.00 0.00 86 1020.0
20260830023029 62 84 3.0 3.0 0.00 0.00 0.00 85 1020.0
20260830022529 63 7 3.0 3.0 0.00 0.00 0.00 83 1020.0
20260830022029 63 90 3.0 4.0 0.00 0.00 0.00 79 1020.0
20260830021529 63 35 4.0 7.0 0.00 0.00 0.00 79 1020.0
20260830021029 63 32 8.0 11.0 0.00 0.00 0.00 79 1020.0
20260830020529 63 32 7.0 9.0 0.00 0.00 0.00 82 1020.0
20260830020029 63 25 7.0 9.0 0.00 0.00 0.00 83 1020.0
20260830015529 64 52 4.0 10.0 0.00 0.00 0.00 82 1021.0
20260830015028 64 95 6.0 9.0 0.00 0.00 0.00 82 1021.0